User: anonymous   Login
Location: Maiden
(35.5760°N, 81.2120°W)
Time: 19:16:53
(UTC-04:00)
Language:

Cosmos 2151 - Orbit

View from above orbital plane
View from above orbital plane
View from above satellite
View from above satellite

Ground track
Ground track

The orbit data is extracted from the following two-line orbital elements,

1 21422U 91042A   15115.16941562  .00002261  00000-0  22543-3 0  9994
2 21422 082.4998 272.1816 0015197 036.7033 323.5223 14.91082870291636
Epoch (UTC): 25 April 2015 04:03:57
Eccentricity: 0.0015197
inclination: 82.4998°
perigee height: 584 km
apogee height: 605 km
right ascension of ascending node: 272.1816°
argument of perigee: 36.7033°
revolutions per day: 14.91082870
mean anomaly at epoch: 323.5223°
orbit number at epoch: 29163

The dashed part of the orbit path shows where the satellite is in the earth's shadow,  

DLR